User: anonymous   Login
Location: Trois-Rivi�res
(46.3500°N, 72.5500°W)
Time: 15:26:52
(UTC-04:00)
Language:

Cosmos 1544 - Orbit

View from above orbital plane
View from above orbital plane
View from above satellite
View from above satellite

Ground track
Ground track

The orbit data is extracted from the following two-line orbital elements,

1 14819U 84027A   15212.15080185  .00003259  00000-0  14019-3 0  9990
2 14819 082.4871 356.6602 0014304 295.0104 116.2995 15.22201118711157
Epoch (UTC): 31 July 2015 03:37:09
Eccentricity: 0.0014304
inclination: 82.4871°
perigee height: 489 km
apogee height: 509 km
right ascension of ascending node: 356.6602°
argument of perigee: 295.0104°
revolutions per day: 15.22201118
mean anomaly at epoch: 116.2995°
orbit number at epoch: 71115

The dashed part of the orbit path shows where the satellite is in the earth's shadow,  

DLR